{"data":{"norad_id":67617,"epoch":"2026-09-19T21:51:03.825216Z","epoch_age_seconds":119843,"freshness":"FRESH","line1":"1 67617U 26020A   26262.91046094  .00011299  00000+0  41931-3 0  9990","line2":"2 67617  42.9998 123.2417 0001368 264.5760  95.4935 15.27594075 35815","mean_motion":15.27594075,"eccentricity":0.0001368,"inclination_deg":42.9998,"raan_deg":123.2417,"arg_perigee_deg":264.576,"mean_anomaly_deg":95.4935,"bstar":0.00041931,"rev_number":3581,"period_min":94.265880155368,"perigee_km":482.06834625734,"apogee_km":483.94555524226,"semimajor_km":6861.1439507498,"source":"CELESTRAK","updated_at":"2026-09-20T09:00:43.609371Z"}}